Location: Hains Lake
(37.8540°N, 99.8578°W)
Time: 22:32:13
(UTC+00:00)

deb Explorer IX - Pass Details

Date: 23 April 2021
Orbit: 541 x 1098 km, 38.8° (Epoch: 13 May)

Event Time Altitude Azimuth Distance (km) Brightness Sun altitude
Rises 16:45:31 0° 282° (WNW) 2,889 ? 54.6°
Reaches altitude 10° 16:47:45 10° 276° (W) 2,048 ? 55.0°
Maximum altitude 16:52:19 48° 203° (SSW) 933 ? 55.7°
Drops below altitude 10° 16:57:39 10° 130° (SE) 2,385 ? 56.5°
Sets 17:00:27 0° 125° (SE) 3,417 ? 56.9°
